Content
SEND FEEDBACK

Daily
Averages
Monthly
Summary
Indonesia

PAKANBARU, INDONESIA


Home > Asia > Indonesia
Elevation: 102 feet     Latitude: 00 28N     Longitude: 101 27E

WEATHER
 
SELECT A DAY
Number of Records: 55,417;   Date Range: 6/19/04 - 9/21/14
 
SHARE

PRINT THIS DATA

[ ← Previous Day ]
WEATHER ALMANAC - JANUARY 23, 2013
[ Next Day → ]
[ °C ]   °F
Weather ElementAverageHighLow
Temperature81.8 °F89.6 °F (1:00 pm)75 °F (4:00 am)
Dewpoint75 °F77 °F (3:00 pm)73.4 °F (11:00 am)
Humidity79.8 %100 % (6:00 am)59 % (1:00 pm)
Barometer29.81 in29.86 in (8:00 am)29.74 in (4:00 pm)
Wind Speed1.7 mph6.9 mph (2:00 pm)
Weather ElementAverage
Visibility5.2 mi
Wind DirectionENE (62.5 °)

Weather ElementTotal
Precipitation---
Cooling Degree Days17.3 (Base 65)
Growing Degree Days32.3 (Base 50)
Averaged from 24 records on January 23, 2013
WEATHER CONDITIONS BREAKOUT
WIND DIRECTION BREAKOUT
WEATHER BY HOUR - JANUARY 23, 2013
[ °C ]   °F
Local TimeTemperatureDewpointHumidityBarometerVisibilityWind DirectionWind SpeedGust SpeedPrecipitationEventsConditions
4:00 AM75.0 °F74.0 °F96 %29.83 in4.0 miCalmScattered Clouds
6:00 AM75.2 °F75.2 °F100 %29.83 in3.7 miCalmPartly Cloudy
7:00 AM75.0 °F74.0 °F98 %29.85 in4.0 miCalmOvercast
7:00 AM75.2 °F75.2 °F100 %29.83 in3.7 miCalmPartly Cloudy
8:00 AM77.0 °F75.2 °F94 %29.86 in3.7 miCalmPartly Cloudy
9:00 AM78.8 °F75.2 °F89 %29.86 in5.0 miCalmPartly Cloudy
10:00 AM82.4 °F75.2 °F79 %29.86 in5.6 miNorth (350°)5.8 mphScattered Clouds
10:00 AM83.0 °F75.0 °F70 %29.86 in6.0 miNorth (350°)5.8 mphMostly Cloudy
11:00 AM84.2 °F73.4 °F70 %29.83 in6.2 miNorth (350°)5.8 mphMostly Cloudy
12:00 PM86.0 °F73.4 °F66 %29.83 in6.2 miCalmMostly Cloudy
1:00 PM89.6 °F73.4 °F59 %29.80 in6.2 miENE (60°)5.8 mphMostly Cloudy
2:00 PM89.6 °F73.4 °F59 %29.77 in6.2 miEast (80°)6.9 mphMostly Cloudy
3:00 PM86.0 °F77.0 °F74 %29.77 in5.6 miCalmScattered Clouds
4:00 PM86.0 °F77.0 °F69 %29.75 in6.0 miCalmRainLight Rain
4:00 PM86.0 °F77.0 °F74 %29.74 in5.6 miCalmMostly Cloudy
5:00 PM86.0 °F75.2 °F70 %29.74 in5.6 miCalmScattered Clouds
6:00 PM84.2 °F75.2 °F74 %29.74 in5.6 miCalmScattered Clouds
7:00 PM82.4 °F75.2 °F79 %29.77 in5.0 miNNE (30°)5.8 mphScattered Clouds
7:00 PM82.0 °F75.0 °F73 %29.79 in5.0 miNNE (30°)5.8 mphPartly Cloudy
8:00 PM80.6 °F75.2 °F84 %29.80 in5.0 miCalmScattered Clouds
9:00 PM80.6 °F75.2 °F84 %29.83 in5.0 miCalmPartly Cloudy
10:00 PM80.0 °F76.0 °F82 %29.86 in5.0 miCalmScattered Clouds
10:00 PM80.6 °F75.2 °F84 %29.83 in5.0 miCalmPartly Cloudy
11:00 PM78.8 °F75.2 °F89 %29.83 in5.0 miCalmPartly Cloudy
Hourly data recorded from WIBB, located miles away from Pakanbaru, Indonesia







STORIES FROM OUR PARTNERS